{"data":{"norad_id":89005,"intl_designator":"","name":"UNKNOWN","alt_names":[],"object_type":"UNKNOWN","status":"UNKNOWN","operator":null,"country":null,"launch_date":null,"launch_site_code":null,"launch_vehicle":null,"mission":null,"orbit_class":"UNKNOWN","rcs_meters":null,"size_class":null,"mass_kg":null,"dimensions":null,"purposes":[],"wikipedia_slug":null,"has_3d_model":false,"image_url":null,"decayed_at":null,"tle_current":{"epoch":"2026-09-17T17:28:35.304960Z","epoch_age_seconds":253711,"freshness":"STALE","line1":"1 89005U          26260.72818640  .00001765  00000+0  40085-3 0  9992","line2":"2 89005  97.8502  74.4007 0186635 251.5794 106.5031 14.47048939574426","mean_motion":14.47048939,"eccentricity":0.0186635,"inclination_deg":97.8502,"raan_deg":74.4007,"arg_perigee_deg":251.5794,"mean_anomaly_deg":106.5031,"bstar":0.00040085,"rev_number":57442,"period_min":99.512874871746,"perigee_km":602.54167457035,"apogee_km":868.0650632201,"semimajor_km":7113.4403688952,"source":"CELESTRAK","updated_at":"2026-09-20T09:00:32.481474Z"}}}